Weather History for Abbotsford, BC

Change the Weather History Date:

Saturday, March 2, 2013

  Actual Average Record
Temperature  
Mean Temperature 46 °F -  
Max Temperature 53 °F 52 °F 57 °F (2009)
Min Temperature 39 °F 35 °F 27 °F (2014)
Degree Days  
Heating Degree Days 19    
Moisture  
Dew Point 45 °F    
Average Humidity 89    
Maximum Humidity 100    
Minimum Humidity 74    
Precipitation  
Precipitation 0.24 in 0.19 in - ()
Sea Level Pressure  
Sea Level Pressure 30.12 in    
Wind  
Wind Speed 10 mph ()    
Max Wind Speed 23 mph    
Max Gust Speed 34 mph    
Visibility 10.4 miles    
Events Rain    
Averages and records for this station are not official NWS values.
T = Trace of Precipitation, MM = Missing Value Source: Averaged Metar Reports

Daily Weather History Graph

Daily Weather History Graph

Search for Another Location

Airport:

Trip Planner

Search our weather history database for the weather conditions in past years. The results will help you decide how hot, cold, wet, or windy it might be!

Date:

Astronomy

Mar. 02, 2013 Rise Set
Actual Time 6:48 AM PST 5:55 PM PST
Civil Twilight 6:17 AM PST 6:26 PM PST
Nautical Twilight 5:40 AM PST 7:03 PM PST
Astronomical Twilight 5:03 AM PST 7:40 PM PST
Moon No Moon Rise 8:50 AM PST (3/2)
Length of Visible Light 12h 09m
Length of Day
11h 06m
Waning Gibbous, 73% of the Moon is Illuminated
Mar 2
Waning Gibbous
Mar 4
Last Quarter
Mar 11
New
Mar 19
First Quarter
Mar 27
Full

Hourly Weather History & Observations

Time (PST) Temp. Windchill Dew Point Humidity Pressure Visibility Wind Dir Wind Speed Gust Speed Precip Events Conditions
12:00 AM 50.0 °F - 48.2 °F 94% 30.24 in 6.0 mi SW 6.9 mph - N/A Rain Light Rain
1:00 AM 50.0 °F - 48.2 °F 94% 30.23 in 10.0 mi WSW 10.4 mph - N/A Rain Light Rain
1:40 AM 50.0 °F - 48.2 °F 94% 30.22 in 10.0 mi WSW 10.4 mph - N/A   Overcast
1:55 AM 50.0 °F - 48.2 °F 94% 30.22 in 10.0 mi WSW 10.4 mph - N/A Rain Light Rain
2:00 AM 50.0 °F - 48.2 °F 94% 30.22 in 10.0 mi WSW 8.1 mph - N/A Rain Light Rain
3:00 AM 50.0 °F - 48.2 °F 94% 30.19 in 10.0 mi SW 8.1 mph - N/A Rain Light Rain
4:00 AM 50 °F - 48 °F 91% 30.17 in 10 mi WSW 5.8 mph - - Rain Light Rain
4:00 AM 50.0 °F - 48.2 °F 94% 30.17 in 10.0 mi WSW 6.9 mph - N/A Rain Light Rain
5:00 AM 51.8 °F - 48.2 °F 88% 30.16 in 10.0 mi SSW 12.7 mph - N/A   Overcast
6:00 AM 50.0 °F - 48.2 °F 94% 30.14 in 6.0 mi SW 10.4 mph - N/A Rain Light Rain
6:50 AM 51.8 °F - 46.4 °F 82% 30.13 in 15.0 mi SSW 10.4 mph - N/A   Overcast
7:00 AM 51.8 °F - 46.4 °F 82% 30.12 in 15.0 mi SSW 11.5 mph - N/A   Overcast
7:12 AM 51.8 °F - 46.4 °F 82% 30.12 in 15.0 mi SSW 12.7 mph - N/A Rain Light Rain
8:00 AM 50.0 °F - 48.2 °F 94% 30.12 in 25.0 mi WSW 9.2 mph - N/A Rain Light Rain
9:00 AM 51.8 °F - 48.2 °F 88% 30.10 in 25.0 mi SSW 11.5 mph - N/A Rain Light Rain
10:00 AM 53 °F - 47 °F 74% 30.07 in 25 mi SSW 13.8 mph - - Rain Light Rain
10:00 AM 53.6 °F - 46.4 °F 77% 30.07 in 25.0 mi SSW 15.0 mph 20.7 mph N/A Rain Light Rain
11:00 AM 53.6 °F - 46.4 °F 77% 30.06 in 20.0 mi SSW 13.8 mph 19.6 mph N/A Rain Light Rain
12:00 PM 51.8 °F - 48.2 °F 88% 30.04 in 20.0 mi SSW 13.8 mph - N/A Rain Light Rain
1:00 PM 53.6 °F - 46.4 °F 77% 30.00 in 20.0 mi SSW 18.4 mph 25.3 mph N/A Rain Light Rain
2:00 PM 50.0 °F - 48.2 °F 94% 29.99 in 2.0 mi SSW 23.0 mph 34.5 mph N/A Rain Light Rain
2:13 PM 48.2 °F - 48.2 °F 100% 29.99 in 1.5 mi SSW 23.0 mph 29.9 mph N/A Rain Light Rain
3:00 PM 44.6 °F 38.4 °F 42.8 °F 93% 30.02 in 3.0 mi WSW 12.7 mph - N/A Rain Light Rain
4:00 PM 44 °F - 43 °F 96% 30.06 in 6 mi SSW 12.7 mph - - Rain Light Rain
4:00 PM 44.6 °F 39.2 °F 42.8 °F 93% 30.06 in 6.0 mi SSW 10.4 mph - N/A Rain Light Rain
5:00 PM 44.6 °F 38.1 °F 42.8 °F 93% 30.06 in 8.0 mi SSW 13.8 mph - N/A Rain Light Rain
6:00 PM 42.8 °F 36.2 °F 41.0 °F 93% 30.07 in 10.0 mi SSW 12.7 mph - N/A   Mostly Cloudy
6:51 PM 42.8 °F 37.0 °F 41.0 °F 93% 30.09 in 10.0 mi South 10.4 mph - N/A Rain Light Rain
7:00 PM 42.8 °F 36.2 °F 41.0 °F 93% 30.09 in 8.0 mi South 12.7 mph - N/A Rain Light Rain
8:00 PM 42.8 °F 36.6 °F 41.0 °F 93% 30.11 in 10.0 mi SSW 11.5 mph - N/A   Mostly Cloudy
9:00 PM 41.0 °F 33.5 °F 37.4 °F 87% 30.12 in 10.0 mi WSW 13.8 mph - N/A   Mostly Cloudy
9:34 PM 41.0 °F 33.9 °F 35.6 °F 81% 30.13 in 10.0 mi West 12.7 mph 18.4 mph N/A Rain Light Rain Showers
9:55 PM 41.0 °F 33.9 °F 35.6 °F 81% 30.13 in 10.0 mi SSW 12.7 mph - N/A   Mostly Cloudy
10:00 PM 39.2 °F 32.0 °F 35.6 °F 87% 30.13 in 10.0 mi South 11.5 mph - N/A Rain Light Rain Showers
10:57 PM 39.2 °F 31.2 °F 37.4 °F 93% 30.15 in 15.0 mi South 13.8 mph - N/A   Scattered Clouds
11:00 PM 39.2 °F 31.2 °F 37.4 °F 93% 30.15 in 15.0 mi South 13.8 mph - N/A   Scattered Clouds